DW5256 Weather Reports


time (UTC)temp
C
wind
direction
speed
KPH
gust
KPH
rain 1hr
cm
rain 24hr
cm
rain mn
cm
humidity
%
barometer
mb
20260507130523 12 310 0.0 0.0 0.00 0.00 0.00 87 1014.5
20260507125020 12 310 0.0 0.0 0.00 0.00 0.00 87 1014.3
20260507123519 12 309 0.0 0.0 0.00 0.00 0.00 86 1014.2
20260507122016 12 309 0.0 0.0 0.00 0.00 0.00 86 1014.2
20260507120515 12 309 0.0 0.0 0.00 0.00 0.00 86 1014.2
20260507115032 12 309 0.0 0.0 0.00 0.00 0.00 86 1014.2
20260507113553 12 309 0.0 0.0 0.00 0.00 0.00 86 1014.2
20260507112027 12 309 0.0 0.0 0.00 0.00 0.00 86 1014.3
20260507110540 12 309 0.0 0.0 0.00 0.00 0.00 86 1014.4
20260507105016 13 309 0.0 0.0 0.00 0.00 0.00 86 1014.4
20260507103514 13 309 0.0 0.0 0.00 0.00 0.00 86 1014.5
20260507102032 13 309 0.0 0.0 0.00 0.00 0.00 86 1014.6
20260507100533 13 309 0.0 0.0 0.00 0.00 0.00 86 1014.6
20260507095045 13 309 0.0 0.0 0.00 0.00 0.00 86 1014.7
20260507093524 13 309 0.0 0.0 0.00 0.00 0.00 85 1014.8
20260507092040 13 309 0.0 0.0 0.00 0.00 0.00 85 1014.9
20260507090543 13 309 0.0 0.0 0.00 0.00 0.00 85 1015.1
20260507085015 13 309 0.0 0.0 0.00 0.00 0.00 85 1015.2
20260507083533 13 309 0.0 0.0 0.00 0.00 0.00 85 1015.3
20260507082033 13 309 0.0 0.0 0.00 0.00 0.00 85 1015.4
20260507080534 13 309 0.0 0.0 0.00 0.00 0.00 85 1015.5
20260507075013 13 309 0.0 0.0 0.00 0.00 0.00 84 1015.6
20260507073531 14 309 0.0 0.0 0.00 0.00 0.00 85 1015.5
20260507072026 14 309 0.0 0.0 0.00 0.00 0.00 84 1015.5
20260507070524 15 309 0.0 0.0 0.00 0.00 0.00 84 1015.6
20260507065031 15 309 0.0 0.0 0.00 0.00 0.00 84 1015.8
20260507063530 15 309 0.0 0.0 0.00 0.00 0.00 83 1015.9
20260507062046 15 309 0.0 0.0 0.00 0.00 0.00 83 1015.9
20260507060527 15 309 0.0 0.0 0.00 0.00 0.00 82 1015.9
20260507055022 15 309 0.0 0.0 0.00 0.00 0.00 81 1015.9
20260507053524 15 309 0.0 0.0 0.00 0.00 0.00 80 1015.9
20260507052022 15 309 0.0 0.0 0.00 0.00 0.00 80 1015.9
20260507050554 15 309 0.0 0.0 0.00 0.00 0.00 80 1015.9
20260507045028 15 309 0.0 0.0 0.00 0.00 0.00 80 1015.9
20260507043528 15 309 0.0 0.0 0.00 0.00 0.00 80 1015.7
20260507042027 15 309 0.0 0.0 0.00 0.00 0.00 80 1015.8
20260507040525 15 309 0.0 6.4 0.00 0.00 0.00 80 1015.7
20260507035028 16 296 0.0 9.7 0.00 0.00 0.00 79 1015.4
20260507033546 16 288 0.0 6.4 0.00 0.00 0.00 77 1015.3
20260507032024 16 319 0.0 9.7 0.00 0.00 0.00 76 1015.1
20260507030524 16 321 1.6 8.0 0.00 0.00 0.00 74 1015.1
20260507025015 17 315 1.6 14.5 0.00 0.00 0.00 72 1014.9
20260507023517 17 314 0.0 6.4 0.00 0.00 0.00 72 1014.7
20260507022014 17 306 3.2 14.5 0.00 0.00 0.00 69 1014.6
20260507020534 18 290 1.6 16.1 0.00 0.00 0.00 67 1014.6
20260507015014 18 311 6.4 16.1 0.00 0.00 0.00 66 1014.5
20260507013534 18 306 3.2 16.1 0.00 0.00 0.00 65 1014.4
20260507012034 19 296 3.2 12.9 0.00 0.00 0.00 63 1014.4
20260507010555 19 286 3.2 17.7 0.00 0.00 0.00 63 1014.5
20260507005013 20 325 6.4 20.9 0.00 0.00 0.00 63 1014.4
20260507003534 20 255 4.8 16.1 0.00 0.00 0.00 64 1014.3
20260507002013 20 315 1.6 12.9 0.00 0.00 0.00 63 1014.3
20260507000532 20 302 6.4 16.1 0.00 0.00 0.00 63 1014.1
20260506235030 20 346 6.4 24.1 0.00 0.00 0.00 64 1014.2
20260506233532 20 292 3.2 22.5 0.00 0.00 0.00 65 1014.0
20260506232030 20 261 4.8 24.1 0.00 0.00 0.00 63 1014.1
20260506230532 21 294 8.0 20.9 0.00 0.00 0.00 62 1014.1
20260506225028 20 311 9.7 22.5 0.00 0.00 0.00 63 1014.1
20260506223544 20 279 9.7 24.1 0.00 0.00 0.00 62 1014.2
20260506222037 21 265 9.7 20.9 0.00 0.00 0.00 60 1014.3
20260506220532 20 282 14.5 27.4 0.00 0.00 0.00 61 1014.4
20260506215029 21 307 6.4 22.5 0.00 0.00 0.00 60 1014.6
20260506213529 21 250 6.4 22.5 0.00 0.00 0.00 61 1014.8
20260506212027 21 253 4.8 25.7 0.00 0.00 0.00 63 1014.8
20260506210546 21 224 8.0 25.7 0.00 0.00 0.00 63 1014.8
20260506205021 21 287 8.0 22.5 0.00 0.00 0.00 62 1015.0
20260506203521 21 246 3.2 24.1 0.00 0.00 0.00 62 1015.0
20260506202018 21 261 12.9 24.1 0.00 0.00 0.00 60 1015.1
20260506200516 22 268 1.6 20.9 0.00 0.00 0.00 60 1015.1
20260506195028 21 273 3.2 22.5 0.00 0.00 0.00 59 1015.2
20260506193523 21 273 0.0 17.7 0.00 0.00 0.00 59 1015.3
20260506192022 21 299 9.7 19.3 0.00 0.00 0.00 59 1015.5
20260506190541 21 259 1.6 20.9 0.00 0.00 0.00 58 1015.5
20260506185030 20 331 0.0 16.1 0.00 0.00 0.00 57 1015.6
20260506183545 20 306 4.8 14.5 0.00 0.00 0.00 57 1015.8
20260506182015 20 290 1.6 16.1 0.00 0.00 0.00 59 1016.0
20260506180547 20 311 11.3 16.1 0.00 0.00 0.00 60 1016.3
20260506175036 18 319 0.0 16.1 0.00 0.00 0.00 63 1016.4
20260506173552 18 266 8.0 20.9 0.00 0.00 0.00 63 1016.5
20260506172021 18 281 1.6 16.1 0.00 0.00 0.00 65 1016.6
20260506170517 17 321 1.6 14.5 0.00 0.00 0.00 68 1016.6
20260506165024 17 313 4.8 12.9 0.00 0.00 0.00 68 1016.5
20260506163520 16 347 0.0 8.0 0.00 0.00 0.00 70 1016.5
20260506162017 16 334 0.0 8.0 0.00 0.00 0.00 70 1016.6
20260506160532 16 344 0.0 9.7 0.00 0.00 0.00 71 1016.7
20260506155043 16 355 0.0 4.8 0.00 0.00 0.00 71 1016.6
20260506153534 15 21 0.0 6.4 0.00 0.00 0.00 72 1016.7
20260506152023 15 11 0.0 6.4 0.00 0.00 0.00 73 1016.8
20260506150515 14 360 0.0 4.8 0.00 0.00 0.00 74 1016.8
20260506145028 13 360 0.0 6.4 0.00 0.15 0.00 75 1016.7
20260506143517 13 351 0.0 0.0 0.00 0.15 0.00 77 1016.7
20260506142026 12 351 0.0 4.8 0.00 0.15 0.00 79 1016.6
20260506140533 11 338 0.0 0.0 0.00 0.15 0.00 80 1016.6
20260506135029 12 335 0.0 6.4 0.00 0.15 0.00 80 1016.6
20260506133543 11 325 0.0 0.0 0.00 0.15 0.00 81 1016.3
20260506132027 11 325 0.0 0.0 0.00 0.15 0.00 81 1016.2